ASL429 ELLX-LYBE

Flight info

Callsign ASL429
Flight time N/A
Altitude 37000
Route ASMOX Y891 ROPUV L607 ULNOK DCT VIBOM DCT NOMBO DCT RIDAR DCT GOMIG DCT NEMAL DCT GOTAR DCT NOHAT DCT BABIT DCT RIGMU
Aircraft A320/M-SDE3FGHIRWY/LB1

Departure

Time 2026-05-04 07:12
Airport Luxembourg-Findel International Airport (ELLX)

Arrival

Time N/A
Airport Belgrade Nikola Tesla Airport (LYBE)
Time Latitude Longitude Altitude Speed Heading
2026-05-04 06:52 49.63265 6.21767 1230 ft 0 kts 62°
2026-05-04 07:05 49.63266 6.21770 1230 ft 1 kts 62°
2026-05-04 07:06 49.63275 6.21795 1230 ft 3 kts 61°
2026-05-04 07:06 49.63269 6.21830 1230 ft 4 kts 129°
2026-05-04 07:06 49.63221 6.21877 1228 ft 10 kts 150°
2026-05-04 07:07 49.63173 6.21937 1228 ft 9 kts 106°
2026-05-04 07:08 49.63417 6.22700 1215 ft 12 kts 60°
2026-05-04 07:09 49.63466 6.22831 1214 ft 16 kts 60°
2026-05-04 07:09 49.63524 6.22988 1214 ft 18 kts 60°
2026-05-04 07:09 49.63592 6.23170 1213 ft 21 kts 60°
2026-05-04 07:09 49.63653 6.23334 1212 ft 13 kts 60°
2026-05-04 07:10 49.63694 6.23444 1210 ft 12 kts 60°
2026-05-04 07:10 49.63682 6.23552 1212 ft 11 kts 158°
2026-05-04 07:12 49.62601 6.21041 1251 ft 162 kts 239°
2026-05-04 07:12 49.62052 6.19522 1784 ft 160 kts 239°
2026-05-04 07:12 49.61501 6.18037 2427 ft 159 kts 239°
2026-05-04 07:12 49.60917 6.16475 2765 ft 179 kts 239°
2026-05-04 07:13 49.60253 6.14707 3061 ft 203 kts 239°
2026-05-04 07:13 49.59504 6.12705 3419 ft 227 kts 239°
2026-05-04 07:13 49.58674 6.10486 3867 ft 250 kts 239°
2026-05-04 07:14 49.57265 6.00240 7178 ft 280 kts 309°
2026-05-04 07:14 49.58878 5.98539 7986 ft 289 kts 342°
2026-05-04 07:15 49.60891 5.98410 8783 ft 297 kts 14°
2026-05-04 07:15 49.62719 5.99886 9567 ft 301 kts 40°
2026-05-04 07:15 49.64329 6.01997 10215 ft 311 kts 37°
2026-05-04 07:15 49.66166 6.03993 10432 ft 334 kts 34°
2026-05-04 07:16 49.68182 6.05992 10715 ft 352 kts 32°
2026-05-04 07:16 49.70291 6.08004 11307 ft 359 kts 32°
2026-05-04 07:16 49.72436 6.10034 11968 ft 364 kts 32°
2026-05-04 07:16 49.74600 6.12098 12629 ft 368 kts 32°
2026-05-04 07:17 49.76786 6.14210 13298 ft 373 kts 33°
2026-05-04 07:17 49.78991 6.16372 13944 ft 377 kts 33°
2026-05-04 07:17 49.81211 6.18570 14524 ft 381 kts 33°
2026-05-04 07:17 49.83449 6.20797 15143 ft 383 kts 33°
2026-05-04 07:18 49.85670 6.23013 15729 ft 387 kts 33°
2026-05-04 07:18 49.87943 6.25284 16305 ft 390 kts 33°
2026-05-04 07:18 49.90253 6.27525 16883 ft 394 kts 28°
2026-05-04 07:18 49.92734 6.29372 17467 ft 397 kts 24°
2026-05-04 07:19 49.95262 6.31165 18067 ft 401 kts 24°
2026-05-04 07:19 49.97812 6.32976 18605 ft 405 kts 24°
2026-05-04 07:19 50.00379 6.34808 19134 ft 409 kts 24°
2026-05-04 07:19 50.02980 6.36671 19671 ft 413 kts 24°
2026-05-04 07:20 50.05509 6.38830 20203 ft 417 kts 34°
2026-05-04 07:20 50.07767 6.41678 20673 ft 421 kts 45°
2026-05-04 07:20 50.09678 6.45154 21142 ft 425 kts 56°
2026-05-04 07:20 50.11175 6.49132 21618 ft 427 kts 66°
2026-05-04 07:22 50.20004 6.77737 24560 ft 451 kts 68°
2026-05-04 07:22 50.21085 6.82316 24943 ft 450 kts 78°
2026-05-04 07:23 50.21691 6.87097 25308 ft 449 kts 87°
2026-05-04 07:23 50.21817 6.91955 25645 ft 448 kts 96°
2026-05-04 07:23 50.21575 6.96806 25999 ft 449 kts 98°
2026-05-04 07:23 50.21311 7.01675 26360 ft 452 kts 98°
2026-05-04 07:24 50.21049 7.06578 26716 ft 454 kts 98°
2026-05-04 07:24 50.20790 7.11504 27077 ft 457 kts 98°
2026-05-04 07:24 50.20529 7.16454 27434 ft 459 kts 98°
2026-05-04 07:24 50.20260 7.21435 27792 ft 462 kts 98°
2026-05-04 07:25 50.19985 7.26441 28143 ft 464 kts 98°
2026-05-04 07:26 50.13845 7.60284 30677 ft 465 kts 113°
2026-05-04 07:27 50.12830 7.65063 31071 ft 465 kts 112°
2026-05-04 07:27 50.11811 7.69848 31476 ft 464 kts 112°
2026-05-04 07:27 50.10790 7.74612 31872 ft 464 kts 113°
2026-05-04 07:27 50.09763 7.79376 32271 ft 463 kts 112°
2026-05-04 07:28 50.08734 7.84126 32688 ft 463 kts 113°
2026-05-04 07:28 50.07646 7.88824 33113 ft 459 kts 118°
2026-05-04 07:28 50.06198 7.93205 33511 ft 453 kts 127°
2026-05-04 07:28 50.04458 7.97273 33916 ft 451 kts 129°
2026-05-04 07:29 50.02700 8.01305 34291 ft 450 kts 129°
2026-05-04 07:29 50.00946 8.05328 34654 ft 449 kts 129°
2026-05-04 07:29 49.99195 8.09346 34999 ft 448 kts 129°
2026-05-04 07:29 49.97442 8.13363 35323 ft 448 kts 129°
2026-05-04 07:30 49.95699 8.17355 35651 ft 447 kts 129°
2026-05-04 07:30 49.93960 8.21334 35953 ft 446 kts 129°
2026-05-04 07:30 49.92211 8.25326 36238 ft 446 kts 129°
2026-05-04 07:30 49.90460 8.29304 36499 ft 446 kts 129°
2026-05-04 07:31 49.88712 8.33266 36763 ft 445 kts 129°
2026-05-04 07:31 49.86961 8.37227 36984 ft 446 kts 129°
2026-05-04 07:33 49.71613 8.67605 37028 ft 449 kts 133°
2026-05-04 07:33 49.67710 8.75157 37031 ft 450 kts 133°
2026-05-04 07:34 49.63804 8.82716 37041 ft 450 kts 133°
2026-05-04 07:34 49.59881 8.90249 37037 ft 450 kts 133°
2026-05-04 07:35 49.55947 8.97757 37046 ft 451 kts 134°
2026-05-04 07:35 49.52004 9.05268 37038 ft 451 kts 133°
2026-05-04 07:36 49.48057 9.12779 37043 ft 451 kts 133°
2026-05-04 07:38 49.34011 9.45075 37037 ft 455 kts 127°
2026-05-04 07:38 49.30529 9.53177 37046 ft 455 kts 127°
2026-05-04 07:39 49.27045 9.61266 37059 ft 455 kts 127°
2026-05-04 07:39 49.23561 9.69347 37065 ft 455 kts 127°
2026-05-04 07:40 49.20071 9.77414 37069 ft 455 kts 127°
2026-05-04 07:40 49.16572 9.85460 37067 ft 455 kts 127°
2026-05-04 07:41 49.13062 9.93500 37068 ft 455 kts 127°
2026-05-04 07:41 49.09549 10.01531 37068 ft 455 kts 127°
2026-05-04 07:42 49.05903 10.09389 37061 ft 451 kts 135°
2026-05-04 07:42 49.01526 10.16181 37068 ft 449 kts 139°
2026-05-04 07:43 48.97107 10.22892 37051 ft 449 kts 139°
2026-05-04 07:43 48.92681 10.29600 37071 ft 449 kts 139°
2026-05-04 07:44 48.88247 10.36296 37069 ft 449 kts 139°
2026-05-04 07:44 48.83842 10.42932 37075 ft 449 kts 139°
2026-05-04 07:45 48.79397 10.49597 37065 ft 449 kts 139°
2026-05-04 07:45 48.74922 10.56303 37054 ft 449 kts 139°
2026-05-04 07:46 48.70475 10.62959 37061 ft 449 kts 139°
2026-05-04 07:46 48.66022 10.69598 37059 ft 450 kts 139°
2026-05-04 07:47 48.61574 10.76246 37059 ft 451 kts 135°
2026-05-04 07:49 48.51704 11.11468 37041 ft 461 kts 111°
2026-05-04 07:49 48.49587 11.20599 37048 ft 461 kts 111°
2026-05-04 07:50 48.47465 11.29725 37035 ft 462 kts 111°
2026-05-04 07:50 48.45340 11.38857 37044 ft 462 kts 111°
2026-05-04 07:51 48.43203 11.47984 37055 ft 462 kts 111°
2026-05-04 07:51 48.41058 11.57109 37062 ft 462 kts 112°
2026-05-04 07:52 48.38921 11.66173 37067 ft 463 kts 112°
2026-05-04 07:52 48.36760 11.75292 37064 ft 463 kts 112°
2026-05-04 07:54 48.31671 11.96576 37071 ft 463 kts 112°